[Date Prev][Date Next][Thread Prev][Thread Next] - [Date Index][Thread Index][Author Index]
2 Line ISS Keps 3-13
- Subject: [sarex] 2 Line ISS Keps 3-13
- From: "Dave Larsen PhD" <doc@xxxxxxxxxxx>
- Date: Mon, 13 Mar 2006 02:04:48 -0800
ISS
1 25544U 98067A 06072.20891259 .00014050 00000-0 99272-4 0 5181
2 25544 051.6462 321.2888 0008682 000.3050 140.3723 15.74307353418034
----
Via the sarex mailing list at AMSAT.ORG courtesy of AMSAT-NA.
To unsubscribe, send "unsubscribe sarex" to Majordomo@amsat.org
AMSAT Home